Location: Poughquag
(41.6090°N, 73.6820°W)
Time: 03:03:37
(UTC-04:00)

Explorer 11/Cluster Stage 4 - Pass Details

Date: 31 May 2020
Orbit: 467 x 1259 km, 28.8° (Epoch: 06 July)

Event Time Altitude Azimuth Distance (km) Brightness Sun altitude
Rises 10:31:22 0° 258° (WSW) 3,987 9.9 54.6°
Reaches altitude 10° 10:34:37 10° 246° (WSW) 3,112 9.5 55.1°
Maximum altitude 10:40:50 26° 194° (SSW) 2,250 9.3 56.2°
Drops below altitude 10° 10:47:15 10° 143° (SE) 3,219 10.3 57.3°
Sets 10:50:41 0° 131° (SE) 4,150 10.8 57.8°
